Total_Precipitation_Accumulation
0.94 1.02 1.30 1.16 1.03 1.01 1.10 1.14 1.03 1.03 1.11 1.14 1.13 1.23 1.44 1.60 1.65 1.63 1.67 1.73 1.87 1.94 1.85 1.77 1.75 1.88 1.92 1.82 1.58 1.41 1.32 1.42 1.36 1.22 1.08 1.10 1.20 1.43 1.79 1.94 1.84 1.31 1.23
0.72 0.92 1.12 1.03 0.95 0.97 0.98 0.96 0.92 0.93 1.04 1.11 1.14 1.25 1.39 1.45 1.48 1.49 1.59 1.74 1.88 1.90 1.77 1.63 1.56 1.74 1.78 1.72 1.52 1.36 1.27 1.38 1.35 1.35 1.20 1.02 1.23 1.61 1.89 1.93 1.99 1.37 1.27
0.51 0.74 0.82 0.87 0.81 0.82 0.83 0.84 0.94 1.03 1.11 1.11 1.15 1.22 1.29 1.29 1.36 1.45 1.55 1.62 1.66 1.51 1.41 1.39 1.43 1.47 1.45 1.48 1.42 1.33 1.33 1.30 1.39 1.57 1.69 1.09 0.95 1.56 1.76 1.80 1.69 1.25 1.11
0.49 0.62 0.64 0.69 0.66 0.64 0.68 0.78 0.91 1.00 1.06 1.09 1.15 1.18 1.16 1.24 1.35 1.40 1.38 1.35 1.26 1.05 1.00 1.09 1.19 1.22 1.25 1.22 1.23 1.31 1.37 1.40 1.61 2.01 2.08 1.32 0.91 1.24 1.52 1.46 1.31 1.12 0.98
0.47 0.54 0.61 0.59 0.54 0.52 0.54 0.60 0.70 0.80 0.87 0.93 0.99 1.04 1.15 1.22 1.26 1.25 1.16 1.13 1.07 0.98 0.88 0.89 1.04 1.17 1.18 1.12 1.14 1.30 1.39 1.49 1.82 1.98 1.73 1.59 1.44 1.41 1.44 1.36 1.24 1.12 1.06
0.29 0.36 0.46 0.48 0.43 0.44 0.53 0.58 0.60 0.68 0.72 0.79 0.91 1.08 1.16 1.20 1.26 1.18 1.04 0.99 0.97 0.91 0.83 0.86 1.06 1.24 1.26 1.13 1.12 1.33 1.48 1.73 1.86 1.48 1.30 1.36 1.45 1.54 1.47 1.53 1.52 1.35 1.25
0.18 0.22 0.32 0.45 0.41 0.40 0.44 0.54 0.63 0.76 0.83 0.86 0.94 1.02 1.11 1.15 1.07 0.97 0.87 0.81 0.80 0.78 0.73 0.82 1.04 1.28 1.41 1.35 1.30 1.42 1.53 1.78 1.61 1.29 1.19 1.36 1.35 1.32 1.42 1.60 1.81 1.67 1.43
0.13 0.16 0.25 0.41 0.41 0.37 0.39 0.47 0.60 0.75 0.82 0.85 0.85 0.81 0.81 0.79 0.75 0.72 0.65 0.63 0.63 0.55 0.59 0.73 0.96 1.07 1.31 1.49 1.49 1.52 1.50 1.43 1.10 1.07 1.02 1.10 0.92 1.07 1.34 1.56 1.76 1.72 1.48
0.19 0.17 0.24 0.31 0.34 0.33 0.38 0.45 0.52 0.53 0.55 0.55 0.55 0.56 0.57 0.59 0.54 0.51 0.51 0.53 0.53 0.57 0.68 0.85 0.99 1.01 1.28 1.47 1.47 1.43 1.51 1.33 1.01 1.08 1.05 1.17 1.09 1.28 1.61 1.69 1.65 1.69 1.55
0.42 0.35 0.38 0.36 0.38 0.36 0.33 0.38 0.45 0.46 0.44 0.46 0.47 0.50 0.48 0.49 0.48 0.48 0.47 0.53 0.52 0.57 0.73 1.00 1.20 1.16 1.32 1.44 1.52 1.64 1.77 1.44 1.14 1.13 1.22 1.12 1.21 1.51 1.86 1.93 1.85 1.83 1.76
0.82 0.70 0.59 0.54 0.45 0.40 0.34 0.36 0.47 0.51 0.53 0.53 0.55 0.57 0.62 0.65 0.60 0.65 0.58 0.70 0.71 0.75 0.82 1.02 1.29 1.52 1.56 1.49 1.69 1.86 1.79 1.54 1.56 1.46 1.40 1.21 1.31 1.66 1.96 2.02 2.05 2.08 1.99
1.04 0.96 0.86 0.80 0.56 0.46 0.46 0.61 0.73 0.66 0.72 0.80 0.84 0.84 0.96 1.08 1.02 0.73 0.81 1.06 1.15 1.28 1.28 1.35 1.57 1.70 1.63 1.68 2.20 2.38 1.74 1.65 1.62 1.60 1.75 1.58 1.64 2.00 2.29 2.16 2.07 2.16 2.11
1.25 1.00 0.99 1.15 0.97 0.82 0.88 0.82 0.85 0.90 1.05 1.09 1.03 1.07 1.26 1.09 0.91 0.91 1.05 1.27 1.46 1.61 1.80 2.08 2.27 2.02 2.12 2.38 2.56 2.36 1.77 1.50 1.57 1.54 1.81 1.86 1.93 2.32 2.68 2.53 2.32 2.31 2.29
1.43 1.13 1.01 1.11 1.25 1.18 1.07 1.04 1.01 0.98 1.07 1.13 1.28 1.29 1.41 1.37 1.32 1.38 1.63 1.75 1.93 2.08 2.44 2.51 2.85 2.65 2.43 2.31 2.36 2.23 1.96 1.81 1.71 1.87 2.04 1.77 1.93 2.41 2.91 2.93 2.76 2.61 2.46
1.72 1.49 1.30 1.19 1.35 1.37 1.33 1.28 1.17 1.17 1.19 1.38 1.53 1.57 1.64 1.72 1.88 2.03 2.03 2.23 2.21 2.29 2.49 2.83 2.88 3.09 3.16 3.14 2.84 2.47 2.32 2.18 2.01 2.14 2.25 2.17 2.09 2.30 2.80 3.22 3.13 2.91 2.62
2.17 2.00 1.72 1.49 1.40 1.44 1.45 1.49 1.54 1.51 1.66 1.76 1.89 1.93 2.10 2.29 2.45 2.66 2.70 2.72 2.50 2.48 2.74 3.00 3.11 3.64 3.61 3.48 3.00 2.69 2.43 2.34 2.14 2.06 2.27 2.42 2.14 2.10 2.47 3.14 3.45 3.24 3.02
2.45 2.42 2.26 2.10 2.03 2.07 2.19 2.12 2.00 2.12 2.20 2.31 2.41 2.44 2.52 2.64 2.86 3.02 2.98 2.87 2.81 2.79 2.99 3.20 3.37 3.55 3.40 3.27 3.11 2.88 2.65 2.40 2.10 2.09 2.14 2.35 2.25 2.12 2.36 2.74 3.17 3.25 3.28
2.58 2.89 2.92 2.72 2.85 2.95 3.07 2.99 2.74 2.73 2.74 2.75 2.73 2.74 2.76 2.87 3.01 3.32 3.13 2.95 3.23 3.07 3.24 3.66 3.68 3.71 3.69 3.48 3.28 3.02 2.78 2.53 2.08 1.97 1.96 2.25 2.59 2.23 2.36 2.67 2.84 2.94 3.36
2.74 3.20 3.39 3.47 3.64 3.64 3.65 3.58 3.51 3.39 3.26 3.01 3.03 3.00 2.85 2.83 2.92 3.21 3.10 3.13 3.19 3.46 3.50 3.27 3.78 3.87 3.79 3.59 3.05 2.86 2.49 2.29 2.10 1.88 1.98 2.06 2.41 2.30 2.33 2.41 2.60 2.77 3.33
3.15 3.53 4.00 4.16 4.22 3.97 3.83 3.78 3.64 3.40 3.24 3.10 3.09 2.99 2.75 2.76 2.80 3.20 3.02 2.98 3.07 3.41 3.41 3.40 3.76 3.75 3.51 3.50 2.86 2.58 2.38 1.98 1.96 2.00 1.83 1.96 2.11 1.83 1.97 2.24 2.69 2.41 2.63
3.70 3.95 4.22 4.59 4.68 4.42 4.35 4.29 4.17 3.85 3.71 3.39 2.99 2.64 2.53 2.53 2.68 3.08 2.82 3.09 3.01 3.11 3.16 3.19 3.46 3.58 3.26 3.31 3.29 2.83 2.21 1.79 1.76 1.76 1.78 1.87 1.83 1.89 2.26 2.61 2.78 2.75 2.56
3.53 4.01 4.33 4.31 4.19 3.91 4.00 4.28 4.51 4.48 3.99 3.41 3.05 2.90 2.54 2.45 2.53 2.68 2.87 2.75 2.77 2.94 2.96 3.00 3.28 3.25 2.88 2.99 3.22 3.24 2.62 2.27 1.82 1.40 1.70 1.80 1.80 2.05 2.18 2.25 2.59 2.88 2.84
2.96 3.46 3.59 3.44 3.35 3.19 3.26 3.57 3.79 4.02 3.76 3.39 3.08 2.83 2.54 2.43 2.36 2.43 2.60 2.61 2.60 2.51 2.71 2.90 2.85 2.86 2.76 2.72 2.82 3.20 2.92 2.50 2.06 1.58 1.43 1.53 1.78 1.99 2.01 2.15 2.18 2.41 2.51
2.11 2.35 2.52 2.69 2.76 2.75 2.79 2.98 3.18 3.34 3.27 3.10 2.99 2.75 2.49 2.24 2.14 2.16 2.22 2.22 2.27 2.27 2.54 2.35 2.38 2.62 2.79 2.65 2.62 2.61 2.67 2.73 2.58 1.99 1.52 1.46 1.68 1.83 1.83 1.78 1.92 2.14 2.16
1.82 2.03 2.24 2.52 2.65 2.70 2.66 2.75 2.96 3.22 3.18 2.93 2.71 2.64 2.47 2.25 2.01 1.91 2.04 2.08 2.08 2.06 2.16 2.21 2.47 2.46 2.55 2.51 2.48 2.48 2.62 2.66 2.49 2.29 1.92 1.76 1.71 1.53 1.55 1.64 1.76 1.97 2.10
1.65 1.87 2.08 2.30 2.26 2.32 2.40 2.44 2.46 2.55 2.63 2.52 2.38 2.31 2.15 1.98 1.83 1.81 1.89 2.02 1.98 1.95 2.08 2.14 2.21 2.23 2.29 2.36 2.30 2.29 2.51 2.41 2.34 2.43 2.11 1.94 1.85 1.58 1.56 1.60 1.62 1.76 1.84